West Plains, MO

2:29 AM CDT on October 17, 2017 (GMT -0500)
West Plains Municipal

Weather History for KUNO - October, 2012

Change the Weather History Date:

Monday, October 8, 2012

  Actual Average Record
Temperature  
Mean Temperature 47 °F 60 °F  
Max Temperature 57 °F 72 °F 91 °F (1979)
Min Temperature 36 °F 47 °F 27 °F (1991)
Degree Days  
Heating Degree Days 18 6  
Month to date heating degree days 87 44  
Since 1 July heating degree days 131 86  
Cooling Degree Days 0 1  
Month to date cooling degree days 0 12  
Year to date cooling degree days 1723 1340  
Moisture  
Dew Point 36 °F    
Average Humidity 68    
Maximum Humidity 92    
Minimum Humidity 43    
Precipitation  
Precipitation 0.00 in 0.11 in 2.48 in (2009)
Month to date precipitation 0.75 0.95  
Year to date precipitation 25.87 35.11  
Sea Level Pressure  
Sea Level Pressure 30.18 in    
Wind  
Wind Speed 5 mph (SSW)    
Max Wind Speed 13 mph    
Max Gust Speed 18 mph    
Visibility 10 miles    
Events      
T = Trace of Precipitation, MM = Missing Value Source: NWS Daily Summary

Daily Weather History Graph

Daily Weather History Graph

Search for Another Location

Airport or City:

Trip Planner

Search our weather history database for the weather conditions in past years. The results will help you decide how hot, cold, wet, or windy it might be!

Date:

Astronomy

Oct. 08, 2012 Rise Set
Actual Time 7:09 AM CDT 6:40 PM CDT
Civil Twilight 6:43 AM CDT 7:05 PM CDT
Nautical Twilight 6:13 AM CDT 7:35 PM CDT
Astronomical Twilight 5:43 AM CDT 8:05 PM CDT
Moon No Moon Rise 2:20 PM CDT (10/8)
Length of Visible Light 12h 22m
Length of Day
11h 30m
Last Quarter, 46% of the Moon is Illuminated
Oct 8
Last Quarter
Oct 15
New
Oct 21
First Quarter
Oct 29
Full
Nov 6
Last Quarter

Hourly Weather History & Observations

Time (CDT) Temp. Windchill Dew Point Humidity Pressure Visibility Wind Dir Wind Speed Gust Speed Precip Events Conditions
12:53 AM 43.0 °F - 37.9 °F 82% 30.20 in 10.0 mi Calm Calm - N/A   Clear
1:53 AM 42.1 °F - 37.0 °F 82% 30.22 in 10.0 mi Calm Calm - N/A   Clear
2:53 AM 39.0 °F - 36.0 °F 89% 30.21 in 10.0 mi Calm Calm - N/A   Clear
3:53 AM 39.9 °F 36.7 °F 37.0 °F 89% 30.22 in 10.0 mi SW 4.6 mph - N/A   Clear
4:53 AM 39.0 °F 34.8 °F 36.0 °F 89% 30.22 in 10.0 mi SW 5.8 mph - N/A   Partly Cloudy
5:53 AM 37.9 °F 34.4 °F 36.0 °F 93% 30.23 in 10.0 mi SW 4.6 mph - N/A   Clear
6:53 AM 37.0 °F - 35.1 °F 93% 30.23 in 10.0 mi Calm Calm - N/A   Clear
7:53 AM 39.0 °F 36.8 °F 37.0 °F 93% 30.24 in 10.0 mi WSW 3.5 mph - N/A   Clear
8:53 AM 42.1 °F 37.1 °F 37.9 °F 85% 30.25 in 10.0 mi West 8.1 mph - N/A   Clear
9:53 AM 46.0 °F 41.9 °F 37.0 °F 71% 30.26 in 10.0 mi West 8.1 mph - N/A   Clear
10:53 AM 50.0 °F - 37.0 °F 61% 30.24 in 10.0 mi Variable 4.6 mph - N/A   Clear
11:53 AM 52.0 °F - 34.0 °F 50% 30.22 in 10.0 mi SW 6.9 mph - N/A   Clear
12:53 PM 54.0 °F - 34.0 °F 47% 30.21 in 10.0 mi Variable 5.8 mph - N/A   Clear
1:53 PM 55.0 °F - 35.1 °F 47% 30.17 in 10.0 mi SSW 9.2 mph - N/A   Scattered Clouds
2:53 PM 55.9 °F - 34.0 °F 44% 30.15 in 10.0 mi SW 11.5 mph 18.4 mph N/A   Clear
3:53 PM 55.9 °F - 35.1 °F 45% 30.14 in 10.0 mi SSW 9.2 mph - N/A   Clear
5:53 PM 55.0 °F - 35.1 °F 47% 30.11 in 10.0 mi South 5.8 mph - N/A   Clear
6:53 PM 51.1 °F - 37.0 °F 59% 30.11 in 10.0 mi South 3.5 mph - N/A   Clear
7:53 PM 46.9 °F - 37.9 °F 71% 30.11 in 10.0 mi Calm Calm - N/A   Clear
8:53 PM 48.0 °F - 37.9 °F 68% 30.11 in 10.0 mi South 3.5 mph - N/A   Clear
9:53 PM 46.0 °F 44.8 °F 37.9 °F 73% 30.11 in 10.0 mi South 3.5 mph - N/A   Clear
10:53 PM 45.0 °F 43.5 °F 37.9 °F 76% 30.12 in 10.0 mi South 3.5 mph - N/A   Clear
11:53 PM 44.1 °F 42.5 °F 37.9 °F 79% 30.11 in 10.0 mi South 3.5 mph - N/A   Clear